CAPE
0 0 0 0 0 0 0 0 0 0 0 0 0 0 0 0 0 1478 1700 1686 1604 2090 2096 1669 2506 2744 2720 2384 2149 1911 1686 1592 1586 1577 1554 1585 1538 1851 1943 2036 2097 1810 1395 1335 1320 1160 925 666 434
0 0 0 0 0 0 0 0 0 0 0 0 0 0 0 0 28 1440 1531 1630 2026 2508 2292 1469 2374 2650 2702 2412 2113 1876 1675 1688 1634 1546 1636 1482 1649 1872 1936 2025 2091 1595 1002 1033 1077 979 730 455 322
0 0 0 0 0 0 0 0 0 0 0 0 0 0 0 0 762 984 2046 1780 2467 2639 2250 1737 2334 2511 2628 2516 2162 1942 1729 1705 1702 1717 1625 1494 1767 1855 1860 1991 1866 1190 827 598 443 437 412 299 311
0 0 0 0 0 0 0 0 0 0 0 0 0 0 0 0 566 1289 1767 1938 2801 2671 2090 1806 2185 2285 2436 2430 2254 2075 1922 1746 1729 1737 1532 1604 1759 1752 1814 1894 1676 1218 580 396 309 260 274 296 265
0 0 0 0 0 0 0 0 0 0 0 0 0 0 0 0 57 345 1068 1906 2928 2447 1978 1935 2099 2122 2295 2326 2242 2083 1896 1713 1666 1599 1523 1601 1677 1695 1794 1822 1719 1186 869 629 387 358 373 314 235
0 0 0 0 0 0 0 0 0 0 0 0 0 0 0 53 16 516 1023 1810 2672 2092 2067 2016 1962 1979 2005 2106 2030 1862 1705 1604 1549 1445 1461 1586 1591 1645 1796 1819 1672 1089 693 406 290 261 283 216 149
0 0 0 0 0 0 0 0 0 0 0 0 0 0 0 0 3 675 1235 1673 2273 1768 2234 1839 1094 1504 1872 1799 1724 1610 1463 1396 1313 1286 1358 1445 1533 1631 1710 1714 1525 958 662 368 186 70 53 43 40
0 0 0 0 0 0 0 0 0 0 0 0 0 0 0 0 44 338 1345 1716 1909 1594 2134 1681 1083 636 618 1105 1569 1421 1327 1244 1168 1286 1391 1428 1548 1652 1677 1409 1379 929 619 298 139 65 50 31 15
0 0 0 0 0 0 0 0 0 0 0 0 0 0 0 0 0 38 831 1611 1735 1561 1908 1678 1264 802 310 168 781 1220 1293 1227 1228 1252 1372 916 81 412 685 498 1237 612 300 197 125 70 65 51 41
0 0 0 0 0 0 0 0 0 0 0 0 0 0 0 0 0 32 536 1429 1657 1589 1818 1593 1654 1073 650 375 461 60 67 70 11 1 181 0 234 193 2 602 968 619 371 269 186 158 113 117 73
0 0 0 0 0 0 0 0 0 0 0 0 0 0 0 0 0 0 160 1040 1673 1735 1909 1647 2150 2259 1115 665 543 157 50 0 0 0 101 40 319 138 152 648 155 110 393 50 119 67 37 109 12
0 0 0 0 0 0 0 0 0 0 0 0 0 0 0 0 0 0 1 438 1790 2005 2096 1912 2274 2399 2337 1026 680 472 295 160 36 19 141 538 407 728 466 86 15 92 9 162 98 91 176 186 309
0 0 0 0 0 0 0 0 0 0 0 0 0 0 0 0 0 0 2 269 1576 2284 2779 3025 3451 3510 2913 2612 965 885 533 508 479 224 82 228 322 912 229 149 69 57 34 127 90 288 493 875 825
0 0 0 0 0 0 0 0 0 0 0 0 0 0 0 0 0 0 0 151 1256 2875 3352 3034 3048 3487 2690 2147 2189 1623 1664 1048 804 478 308 384 352 880 106 239 109 66 287 265 573 946 1285 1956 1653
0 0 0 0 0 0 0 0 0 0 0 0 0 0 0 0 0 0 0 12 623 2672 3389 3318 3429 3576 3436 3459 2432 1550 1064 963 882 537 1444 490 878 1488 1117 176 130 549 893 1483 1784 1750 1622 1186 1202
0 0 0 0 0 0 0 0 0 0 0 0 0 0 0 0 0 0 0 0 0 475 3411 3624 2744 2756 3352 3471 2393 1606 1156 1002 819 504 623 544 465 701 918 156 373 1115 1881 2193 2382 2435 1528 1545 1075
0 4 0 0 1 2 0 0 0 0 0 0 0 0 0 0 0 0 0 0 0 421 3746 3726 3436 2732 2957 3604 2349 2327 3142 1264 830 555 676 701 508 588 638 78 955 2249 1507 2174 2680 1733 1880 1876 1531
2 14 29 35 25 29 6 1 0 0 0 0 0 0 0 0 0 0 0 0 0 63 4280 4231 3557 3708 3395 3424 3417 1962 1607 1310 857 659 766 1087 602 569 658 327 2834 2349 2302 2454 1971 2018 1532 1559 1136
69 79 61 11 0 36 13 1 0 0 4 0 0 0 0 0 0 0 0 0 0 170 3869 3920 4011 4067 3856 3078 2574 2020 1533 1599 942 819 2227 1458 743 714 1842 2254 2608 2468 2802 2507 2364 1821 1660 982 667
57 92 83 8 28 38 27 1 0 0 4 12 0 0 0 0 0 0 0 0 0 1118 3818 3845 3975 4214 4026 3353 2936 2112 2041 1504 1050 762 2073 1663 989 919 1754 2424 2703 2281 2579 2306 1957 1710 1107 587 458
161 147 104 134 100 111 41 6 0 0 0 1 14 0 0 0 0 0 0 0 0 1676 4167 3848 3763 4442 4214 3557 3050 3181 2471 2063 1263 1448 1458 1570 1215 728 1744 1880 2502 2342 2487 1588 1107 796 800 1029 524
220 180 146 216 139 158 117 147 53 9 15 10 4 2 0 0 0 0 0 0 0 1344 3671 3634 4024 4462 3977 3788 2996 2880 2289 1870 1364 1392 1554 1714 1056 1140 2167 1916 1521 1077 577 561 289 247 528 518 115
143 326 220 183 259 197 56 133 91 59 33 27 15 8 0 0 0 0 0 0 1 1984 3099 4053 3466 4041 3445 3426 3315 3157 2569 1747 1489 1578 2628 2386 2527 2054 1552 1144 882 467 197 374 341 330 494 108 437
151 199 213 206 204 210 130 187 93 74 56 37 24 8 1 0 0 0 0 0 34 3005 3598 3622 3009 3687 3564 3786 3913 3605 3385 2552 1901 2561 2370 2548 1346 894 755 434 239 282 267 17 19 204 216 355 352
215 269 335 342 291 254 200 124 131 179 69 53 21 20 6 0 0 0 0 0 2 2322 3635 3202 2994 3395 3604 3912 4243 3805 3848 3650 4058 3195 1246 434 183 539 313 182 241 71 0 14 57 130 151 222 155
205 262 264 162 163 132 79 127 271 128 91 96 40 4 40 45 5 0 0 0 5 1133 3461 3476 3134 3290 4123 3833 3953 3635 4060 3008 2587 1271 610 319 435 384 185 172 20 1 0 16 18 16 38 75 15
31 71 55 71 247 260 92 130 245 122 141 49 4 5 12 67 14 0 0 0 16 1224 2584 3526 3009 3255 4201 3551 3696 3602 3837 1976 1102 967 1259 913 579 280 174 48 8 0 0 2 12 0 0 1 1
4 9 153 215 85 72 135 96 220 153 151 91 21 1 26 21 3 12 4 0 57 1672 1852 3636 3708 3358 3562 3311 3430 3618 1946 1499 970 1141 1227 952 692 177 4 0 1 5 6 1 2 0 0 0 0
41 46 39 105 119 167 109 233 255 122 117 292 104 23 38 56 71 57 14 29 92 1509 1904 2774 2977 2763 3176 2867 2267 1764 1737 1246 1178 1481 1237 932 470 96 4 6 2 0 0 0 0 0 0 0 1
30 31 90 210 63 92 135 308 75 189 377 371 129 149 44 6 56 29 31 28 252 1523 1889 2456 2544 2512 2602 1597 1301 1312 1536 1928 1300 1212 711 531 208 13 6 2 0 0 0 0 0 0 0 0 0
CIN
0 0 0 0 0 0 0 0 0 0 0 0 0 0 0 0 0 -37 -76 -117 -133 -242 -348 -418 -286 -204 -162 -163 -159 -171 -173 -153 -122 -108 -92 -56 -51 -3 0 0 0 0 -3 -2 -1 -4 -15 -34 -70
0 0 0 0 0 0 0 0 0 0 0 0 0 0 0 0 -18 -73 -62 -145 -159 -270 -328 -398 -310 -223 -175 -167 -187 -184 -177 -140 -120 -102 -72 -67 -28 -3 0 0 0 0 -19 -16 -6 -7 -20 -67 -88
0 0 0 0 0 0 0 0 0 0 0 0 0 0 0 0 -44 -43 -103 -138 -155 -261 -324 -381 -317 -255 -203 -166 -189 -191 -168 -142 -105 -81 -74 -75 -20 -3 0 0 0 -10 -44 -82 -105 -90 -84 -106 -88
0 0 0 0 0 0 0 0 0 0 0 0 0 0 0 0 -73 -79 -133 -121 -146 -236 -290 -454 -344 -293 -233 -188 -169 -157 -143 -132 -105 -89 -108 -70 -26 -9 0 0 0 -20 -98 -131 -138 -136 -128 -107 -99
0 0 0 0 0 0 0 0 0 0 0 0 0 0 0 0 -184 -173 -155 -115 -137 -213 -257 -369 -336 -310 -255 -200 -169 -155 -143 -151 -123 -118 -116 -84 -29 -11 -1 -1 -2 -26 -42 -74 -119 -108 -98 -103 -102
0 0 0 0 0 0 0 0 0 0 0 0 0 0 0 -184 -202 -148 -130 -109 -113 -173 -210 -318 -337 -319 -289 -226 -199 -184 -175 -166 -147 -143 -112 -75 -35 -10 -2 -2 -7 -34 -74 -135 -158 -154 -144 -161 -162
0 0 0 0 0 0 0 0 0 0 0 0 0 0 0 0 -22 -133 -137 -99 -101 -140 -176 -311 -448 -358 -288 -271 -250 -224 -217 -200 -182 -162 -114 -83 -34 -15 -8 -7 -14 -42 -75 -139 -209 -276 -312 -248 -237
0 0 0 0 0 0 0 0 0 0 0 0 0 0 0 0 -224 -149 -114 -85 -84 -126 -147 -273 -389 -474 -461 -363 -269 -256 -231 -231 -206 -145 -95 -64 -32 -15 -11 -29 -18 -41 -86 -177 -252 -300 -289 -286 -276
0 0 0 0 0 0 0 0 0 0 0 0 0 0 0 0 0 -210 -100 -72 -54 -87 -116 -206 -295 -405 -465 -494 -388 -275 -215 -196 -184 -128 -77 -144 -257 -195 -116 -146 -23 -96 -191 -253 -292 -278 -281 -265 -272
0 0 0 0 0 0 0 0 0 0 0 0 0 0 0 0 0 -225 -91 -58 -41 -63 -84 -147 -195 -304 -344 -395 -419 -520 -501 -173 -112 -64 -332 0 -228 -244 -138 -116 -38 -96 -156 -216 -251 -260 -242 -236 -148
0 0 0 0 0 0 0 0 0 0 0 0 0 0 0 0 0 -17 -136 -48 -25 -36 -40 -95 -119 -121 -228 -295 -374 -430 -465 0 0 0 -331 -250 -184 -213 -195 -85 -224 -269 -152 -263 -251 -253 -222 -102 -98
0 0 0 0 0 0 0 0 0 0 0 0 0 0 0 0 0 0 -131 -77 -6 -7 -22 -54 -86 -83 -58 -190 -297 -292 -324 -334 -372 -21 -282 -142 -145 -91 -96 -199 -257 -223 -270 -126 -158 -109 -72 -77 -29
0 0 0 0 0 0 0 0 0 0 0 0 0 0 0 0 0 0 -77 -63 0 0 -4 -9 -16 -13 -15 -31 -198 -176 -213 -198 -181 -231 -281 -185 -141 -59 -134 -128 -160 -183 -161 -117 -117 -40 -21 0 -1
0 0 0 0 0 0 0 0 0 0 0 0 0 0 0 0 0 0 0 -113 -1 -1 0 -14 -20 -12 -22 -49 -44 -73 -42 -83 -84 -132 -195 -147 -127 -48 -151 -99 -110 -157 -38 -42 -7 -1 0 -1 -4
0 0 0 0 0 0 0 0 0 0 0 0 0 0 0 0 0 0 0 -230 -36 -1 -7 -22 -14 -5 -3 0 -21 -52 -60 -57 -55 -99 -29 -123 -40 -8 -19 -110 -136 -15 -1 -1 0 -2 -1 0 -4
0 0 0 0 0 0 0 0 0 0 0 0 0 0 0 0 0 0 0 0 0 -72 -33 -6 -30 -22 -3 0 -24 -19 -32 -38 -42 -78 -97 -106 -112 -75 -28 -128 -45 0 0 -1 -7 -4 0 -1 0
0 0 0 0 0 0 0 0 0 0 0 0 0 0 0 0 0 0 0 0 0 -137 -12 0 -6 -17 -1 0 -14 -1 0 -7 -32 -55 -62 -80 -108 -93 -66 -139 -2 -3 0 -1 -6 0 -2 -3 -1
0 0 0 0 -1 0 0 0 0 0 0 0 0 0 0 0 0 0 0 0 0 -53 -8 0 -3 0 0 0 0 -4 -8 -7 -30 -41 -43 -58 -104 -97 -63 -62 -1 -1 0 0 0 -1 0 -1 -2
0 0 0 0 0 0 0 0 0 0 0 0 0 0 0 0 0 0 0 0 0 -22 -2 0 0 0 0 0 -7 -9 -30 -8 -30 -34 0 -26 -74 -84 0 -4 0 0 0 0 0 0 0 0 -10
0 0 0 -16 -2 0 0 0 0 0 0 0 0 0 0 0 0 0 0 0 0 -2 -1 0 0 0 -2 -4 -7 -7 -4 -26 -30 -38 0 -19 -53 -74 -2 -14 0 0 0 0 0 -1 -1 -7 -26
0 0 0 0 0 -1 0 0 0 0 0 0 0 0 0 0 0 0 0 0 0 0 0 0 -1 0 -8 -6 -5 0 -1 -5 -18 -13 -11 -13 -27 -67 0 0 0 0 0 0 -7 -10 -13 -3 -10
0 -1 -2 -1 0 0 0 0 0 0 0 0 0 0 0 0 0 0 0 0 0 0 0 0 0 0 -13 -4 -10 -4 -25 -39 -43 -25 -4 -6 -28 -11 -3 -2 -4 -8 -27 -22 -39 -44 -10 -17 -71
-1 0 0 0 0 0 -3 0 0 0 0 0 0 0 0 0 0 0 0 0 -1 0 0 0 0 0 -22 -7 -6 -10 -8 -25 -33 -3 -7 0 -1 -1 -1 -15 -8 -29 -64 -55 -56 -69 -31 -57 -35
-1 0 -1 0 0 0 0 0 0 0 0 0 0 0 0 0 0 0 0 0 -66 0 -1 -1 -2 -1 -15 0 0 -2 0 -5 -11 -1 0 0 -24 -51 -30 -34 -46 -39 -34 -34 -82 -31 -15 -13 -23
-1 0 0 0 0 0 0 -3 -2 -1 0 -1 0 0 0 0 0 0 0 0 -9 0 -7 -1 -3 -1 -2 0 0 0 0 -1 -2 -3 -106 -186 -215 -79 -73 -85 -56 -125 0 -141 -63 -19 -2 -4 -25
-1 0 0 0 0 0 -1 -1 0 -1 -8 0 -1 -8 0 -2 0 0 0 0 -9 -1 -9 -4 -2 0 0 -5 0 0 0 -1 -41 -171 -208 -204 -129 -102 -145 -118 -91 0 0 -126 -100 -89 -116 -69 -151
-29 -4 -6 -1 0 0 0 0 0 -2 0 -13 -27 -23 -8 0 -1 0 0 0 -1 0 0 -11 -6 -1 0 -10 -1 0 0 -119 -236 -190 -85 -68 -89 -124 -159 -207 -88 0 0 0 -72 0 0 0 0
0 0 -1 -2 0 -1 0 -3 -1 -10 -5 -14 -7 -18 -7 -2 -1 0 -1 0 -5 0 -1 -1 -1 -4 -1 -12 -2 -1 -131 -162 -207 -131 -78 -56 -58 -141 -164 0 0 0 0 0 0 0 0 0 0
0 -14 0 -4 0 -2 0 0 -7 -36 -36 0 -5 -3 -26 -4 -2 -1 0 -1 0 0 -1 0 -19 -10 -3 -8 -23 -145 -150 -172 -147 -67 -53 -54 -103 -164 -1 0 0 0 0 0 0 0 0 0 0
0 0 0 0 0 0 -1 0 -7 -9 -1 -3 -40 -4 -15 -7 -3 -1 -1 0 -2 -1 -6 0 -14 -10 -1 -96 -199 -252 -151 -71 -120 -82 -119 -119 -146 -75 0 0 0 0 0 0 0 0 0 0 0
Wind_Speed
12 12 10 6 9 9 16 17 16 10 7 8 5 8 12 12 11 7 5 8 18 21 21 19 16 17 17 17 17 17 17 16 16 16 16 14 13 12 12 13 11 11 12 12 11 10 9 8 8
13 7 7 8 9 14 14 18 18 11 10 4 6 6 9 9 11 13 10 9 20 21 20 20 17 17 18 17 18 17 17 17 17 16 15 15 13 13 12 12 11 11 11 11 10 9 8 8 8
16 11 9 7 15 17 17 17 9 8 5 4 5 1 8 6 10 6 12 14 20 20 20 19 17 18 19 18 18 18 17 18 18 17 16 16 15 14 12 11 10 10 10 9 9 8 8 8 8
8 7 9 14 22 20 22 20 8 9 9 7 10 8 5 12 6 8 10 15 19 19 21 22 17 18 19 19 18 18 18 18 18 18 17 16 15 13 11 10 9 10 9 9 9 8 8 8 7
10 9 14 19 26 27 23 21 16 6 11 8 7 11 7 9 3 4 9 15 18 19 19 20 17 18 19 19 19 18 18 18 18 18 17 17 14 13 11 10 9 10 9 9 8 8 8 7 6
10 10 17 20 28 26 24 24 19 13 17 10 7 10 10 14 4 5 10 15 17 19 19 20 17 17 19 18 19 18 18 18 18 17 16 15 14 13 11 10 10 10 9 9 8 7 7 6 5
18 15 21 26 26 25 24 22 20 18 16 19 12 14 9 9 7 6 9 14 17 19 18 19 19 17 17 18 18 18 18 18 17 16 15 15 13 12 11 10 10 10 9 8 8 7 6 5 5
15 16 28 24 22 29 25 23 13 11 19 16 17 12 14 14 10 8 11 14 17 18 19 19 19 19 17 16 17 17 17 17 16 15 15 14 12 11 10 10 9 9 9 8 8 7 7 6 5
17 18 21 26 29 24 21 25 16 11 16 17 14 19 14 5 6 10 12 15 17 17 19 20 20 19 18 18 15 14 15 15 15 14 13 12 11 12 12 7 13 10 10 10 9 8 8 8 8
21 18 28 24 23 21 21 25 18 20 14 14 17 17 14 10 9 13 14 16 19 20 21 20 19 19 18 15 16 15 14 12 12 13 14 11 11 11 12 11 12 10 10 10 10 9 9 11 9
23 26 25 26 22 23 25 25 22 18 24 20 18 15 16 15 13 15 16 17 20 20 17 20 18 16 18 15 12 9 9 9 9 14 13 11 9 9 8 8 7 8 10 8 9 8 8 11 4
24 28 26 25 23 25 28 21 24 24 23 21 21 20 16 18 15 16 16 17 19 20 19 18 21 16 15 13 12 13 11 10 10 12 14 9 8 9 8 8 10 9 8 9 9 7 4 3 2
22 22 24 24 25 24 23 26 24 26 23 21 21 25 17 16 13 16 16 16 18 20 18 16 17 15 13 12 13 12 12 11 12 12 14 10 10 8 8 7 8 7 8 6 6 5 6 6 4
19 21 19 20 21 22 28 25 25 31 25 25 25 24 23 24 16 17 15 14 16 20 18 15 14 14 14 11 13 9 9 12 11 12 13 12 9 8 8 6 6 7 5 6 6 6 6 3 3
14 20 21 22 19 25 24 30 33 28 30 28 25 26 24 25 23 21 18 14 13 13 19 15 13 13 11 12 12 10 11 11 11 10 12 12 10 9 7 7 6 7 3 3 2 2 3 4 2
22 22 22 19 24 23 24 32 30 27 31 31 30 24 25 28 29 23 23 20 18 17 18 21 17 17 12 13 12 10 10 10 10 10 11 12 11 11 8 8 8 5 4 4 3 5 2 2 3
20 21 26 25 19 13 24 28 25 22 25 29 27 29 26 26 27 26 27 23 20 16 21 22 21 23 17 15 13 12 10 10 10 9 10 13 12 11 9 7 6 5 5 2 2 1 1 3 5
23 24 24 20 17 18 18 22 22 23 26 24 30 28 26 29 29 27 26 24 21 18 23 21 20 21 19 14 11 12 10 10 9 9 9 13 10 11 8 7 8 5 3 3 1 3 3 5 4
23 26 26 26 26 26 20 23 23 23 25 26 24 20 22 23 25 26 24 20 18 21 20 22 22 20 18 14 14 13 12 11 10 9 12 14 11 12 8 5 7 5 5 3 3 2 1 1 3
26 28 27 28 27 24 22 24 23 23 26 27 24 20 22 20 20 21 24 21 20 20 21 23 22 22 19 14 12 11 11 12 10 10 10 12 12 12 9 7 6 6 6 5 4 2 2 2 3
23 25 28 28 26 22 22 25 26 24 28 31 26 25 24 23 23 21 21 22 21 20 21 22 23 22 20 17 12 10 10 10 11 11 10 11 11 12 9 7 6 6 5 6 5 4 4 6 4
22 27 21 25 19 18 19 19 23 22 23 30 32 28 26 24 23 23 20 23 20 21 23 22 23 22 21 18 15 14 13 14 12 11 11 11 12 8 11 10 10 7 8 8 7 5 4 6 4
17 24 19 22 21 20 26 18 18 23 26 27 31 32 30 27 26 26 22 21 25 21 20 21 22 21 22 19 18 14 15 12 12 12 16 13 10 12 14 11 12 9 7 7 5 6 6 4 3
16 15 20 19 18 19 26 22 22 20 23 26 28 32 33 31 27 26 24 18 22 24 19 19 21 23 22 21 18 18 16 15 13 14 13 10 9 9 11 12 10 9 9 6 6 8 6 6 6
12 15 9 14 14 15 23 15 16 26 21 25 28 27 31 32 27 27 26 24 23 25 24 22 23 22 23 22 18 18 16 16 16 17 11 13 9 9 12 13 12 9 9 10 2 5 2 5 6
9 11 7 16 17 20 22 12 17 15 18 24 18 30 25 22 23 26 25 22 25 24 27 26 23 22 22 22 19 17 15 13 14 15 12 11 12 12 16 14 11 11 8 8 7 4 5 4 3
18 20 21 21 19 20 20 24 24 20 18 18 17 23 21 23 21 25 24 23 23 23 22 25 24 22 22 21 18 18 17 17 15 17 15 12 13 13 16 15 13 10 10 7 6 6 5 3 5
19 18 16 7 8 18 17 11 8 16 13 16 17 22 22 18 26 24 21 22 20 23 22 25 24 21 21 20 18 15 19 19 16 16 16 17 15 16 15 14 13 10 9 9 8 5 6 5 4
16 15 17 12 12 13 18 7 6 9 19 16 17 21 20 16 17 15 16 14 19 22 23 19 24 23 19 19 19 20 19 20 18 16 16 16 15 15 15 15 14 12 11 9 9 8 5 6 5
20 21 17 10 10 11 11 12 7 6 26 24 4 14 22 22 17 16 18 17 18 22 21 20 19 20 16 19 21 21 21 21 17 16 15 15 17 16 15 14 14 10 11 10 8 7 7 7 5
Wind_Direction
251 226 237 248 246 226 256 251 258 273 242 224 348 283 360 332 335 76 103 99 129 135 152 161 146 146 146 151 146 141 142 142 139 138 143 141 142 142 129 128 127 126 128 127 128 130 126 120 112
244 217 233 268 249 253 248 232 262 232 273 94 287 250 250 287 43 113 161 143 142 139 155 162 150 147 146 150 142 142 145 142 140 142 143 141 146 143 137 132 130 130 132 131 130 126 117 107 101
254 224 258 231 235 249 260 265 267 288 217 172 270 198 321 341 82 43 84 153 144 150 159 151 154 148 145 144 144 145 146 143 143 144 144 148 151 150 144 134 134 135 132 125 120 112 106 103 103
215 204 251 253 244 234 240 263 303 306 270 265 251 283 242 61 3 36 124 158 144 156 167 138 153 147 144 143 145 146 148 146 145 148 150 155 154 148 141 137 137 132 129 120 112 111 110 109 113
242 257 240 238 243 251 256 256 262 284 264 257 196 250 238 113 96 123 150 163 155 164 167 154 152 147 144 146 147 149 151 148 150 153 156 154 152 146 142 138 136 133 128 121 119 117 116 121 132
226 238 241 242 243 246 246 253 257 240 262 240 178 236 264 107 166 163 167 172 166 168 156 157 151 149 146 148 148 151 154 151 154 156 156 150 151 145 139 136 131 132 129 129 126 128 132 139 145
241 236 246 256 261 259 248 237 245 246 230 252 245 262 265 152 168 180 171 176 174 172 152 158 167 155 148 149 152 155 157 154 156 153 153 150 148 140 136 132 130 133 133 131 133 143 148 153 165
243 254 261 256 256 260 269 273 261 225 244 267 271 253 248 243 139 189 178 188 181 172 157 164 170 169 168 161 155 156 158 154 151 151 150 147 140 135 136 130 137 140 140 143 149 159 161 174 189
230 246 250 251 255 264 267 266 286 275 254 256 266 253 256 109 148 202 191 193 184 175 165 171 172 172 177 167 158 154 155 152 146 148 147 147 169 170 157 155 141 153 158 160 165 173 177 193 202
231 241 243 257 271 267 272 264 245 247 253 248 258 249 245 198 209 215 198 194 189 181 173 174 170 175 179 165 157 170 161 169 171 171 167 179 167 184 187 140 147 162 170 175 175 185 202 209 203
239 245 263 272 264 264 273 280 275 247 250 259 257 232 233 231 209 220 207 200 192 184 178 182 166 175 182 167 161 170 167 167 174 176 177 193 161 181 181 153 167 174 192 190 188 188 217 218 306
249 254 259 267 273 284 276 273 266 272 267 264 275 264 250 214 224 214 224 205 199 187 182 190 165 178 193 161 171 173 172 170 175 181 187 191 181 168 194 168 182 188 179 209 203 188 86 199 191
257 258 263 268 268 267 273 267 271 267 260 268 271 271 254 255 226 234 226 214 196 189 185 188 160 176 192 168 178 181 179 177 180 174 189 185 199 168 202 181 190 198 187 168 203 117 186 179 202
282 285 284 283 274 261 255 254 255 253 261 264 268 260 258 259 223 243 224 235 206 186 180 179 167 169 188 189 178 182 186 174 189 176 180 189 207 164 188 173 210 209 194 174 185 164 180 201 88
279 277 266 261 260 258 257 256 249 259 262 262 245 245 254 257 245 233 234 229 232 199 168 161 157 164 189 200 182 186 183 179 194 179 162 195 210 156 200 183 209 198 177 90 310 117 219 247 287
268 261 265 263 251 240 230 254 251 247 251 250 247 247 234 238 249 241 223 220 214 234 150 166 167 179 197 197 182 194 181 192 191 177 164 191 197 163 203 179 202 154 162 205 237 220 256 239 262
252 254 258 259 258 263 277 257 249 259 255 257 249 231 232 240 244 239 241 226 216 207 163 174 166 178 191 195 182 202 175 207 186 179 165 185 184 173 205 182 170 124 193 154 184 224 344 118 279
266 270 286 285 298 292 261 268 276 267 266 256 240 254 231 222 234 237 233 229 208 207 164 175 175 177 184 186 187 194 174 204 185 177 169 167 180 172 208 187 126 184 159 200 195 9 58 336 337
277 277 275 280 278 280 270 274 279 277 257 245 264 239 235 233 234 228 228 228 210 199 175 170 180 182 178 184 190 188 179 189 182 178 153 171 170 173 194 163 148 165 162 172 128 117 15 269 330
271 271 274 274 273 270 270 269 268 277 272 264 248 245 254 252 245 236 215 209 215 186 175 168 182 188 178 187 189 186 182 180 179 176 149 167 164 166 181 130 171 157 129 102 87 19 348 319 7
259 261 264 270 280 282 282 272 266 254 257 263 250 249 250 247 242 240 222 213 193 190 173 173 181 185 178 181 184 177 178 169 175 154 162 171 157 169 183 125 129 112 119 93 65 25 3 324 78
264 268 276 273 264 264 269 277 271 275 247 246 249 240 238 236 246 249 221 214 210 185 170 179 185 183 176 175 183 176 182 174 172 161 167 147 160 154 108 110 105 102 98 89 66 37 331 314 39
280 278 269 290 278 275 266 266 271 277 273 243 235 239 237 238 232 236 237 196 220 184 179 181 183 179 172 187 180 172 183 168 167 166 131 149 145 131 115 116 123 114 98 109 142 70 11 317 322
287 281 286 272 261 255 261 260 260 271 272 264 250 224 233 237 230 228 221 217 213 171 179 185 182 178 175 186 176 176 176 171 164 145 142 128 107 106 114 121 116 107 97 76 50 56 13 5 359
296 263 271 259 250 252 266 295 283 283 281 271 254 244 224 224 215 222 217 204 203 186 173 184 182 180 175 179 172 175 182 167 141 128 123 126 121 126 137 123 119 108 105 90 88 75 25 13 7
245 261 247 282 289 295 301 263 267 299 256 260 273 294 228 209 225 216 214 206 197 197 167 177 182 176 173 173 170 173 176 135 127 130 131 129 138 143 135 127 120 125 115 133 149 130 81 32 49
270 257 261 276 285 273 280 271 283 320 272 251 231 259 274 209 223 216 210 205 202 190 186 171 178 172 173 168 168 171 145 126 133 132 134 140 141 142 142 141 137 127 128 129 104 108 101 69 19
254 269 279 271 277 270 274 294 290 301 283 265 272 234 257 213 229 218 202 203 204 178 183 165 170 171 168 161 163 143 129 131 135 139 142 149 144 145 137 136 120 117 122 111 106 101 75 77 28
263 236 242 270 261 277 290 312 271 327 304 250 250 228 234 244 196 189 196 204 203 169 172 185 164 174 160 157 130 131 132 135 138 143 145 138 145 139 133 127 128 129 116 108 93 89 105 80 63
263 273 242 247 249 255 285 278 230 359 292 267 315 267 215 234 204 200 193 180 210 170 166 169 149 158 150 141 134 131 136 140 133 136 132 135 137 131 128 123 110 121 115 119 115 92 80 73 62